Location: G�rlitz
(51.1670°N, 15.0000°E)
Time: 15:38:52
(UTC+01:00)

ARIANE 6 FM1 Upper Stage - Pass Details

Date: 17 February 2026
Orbit: 523 x 607 km, 62.0° (Epoch: 6 March)

Event Time Altitude Azimuth Distance (km) Brightness Sun altitude
Rises 18:37:30 0° 311° (NW) 2,662 6.9 -12.8°
Reaches altitude 10° 18:39:42 10° 310° (NW) 1,769 5.9 -13.2°
Maximum altitude 18:43:39 73° 226° (SW) 554 2.7 -13.8°
Enters shadow 18:47:26 11° 142° (SE) 1,706 4.8 -14.4°
